Lapse_Rate
5.6 5.5 6.1 6.2 5.8 5.8 6.0 5.8 5.6 6.0 6.1 5.4 5.9 5.7 6.5 6.5 6.3 6.6 6.8 6.6 6.3 6.2 6.2 6.1 6.0 6.0 5.9 5.9 6.2 6.2 6.2 6.4 6.6 6.6 6.6 6.6 6.6 6.5 6.5 6.4 6.5 6.7 6.7 6.8
5.3 5.4 6.2 5.9 5.8 6.0 5.8 5.6 5.7 5.7 5.9 5.4 5.6 5.8 6.6 6.9 6.7 6.6 6.6 6.6 6.6 6.5 6.3 6.0 5.8 5.7 5.7 5.8 5.8 5.8 6.0 6.3 6.4 6.5 6.5 6.6 6.8 6.9 6.8 6.6 6.5 6.4 6.4 6.5
5.4 5.6 5.7 5.7 5.8 5.8 5.7 5.5 5.7 5.6 6.0 5.9 5.6 5.7 6.6 6.7 6.7 6.9 6.7 6.6 6.6 6.7 6.6 6.3 6.0 5.9 6.0 6.0 5.9 5.8 5.8 5.8 5.9 6.0 6.2 6.3 6.4 6.5 6.7 6.7 6.6 6.6 6.6 6.3
4.8 5.7 5.4 5.4 5.3 5.4 5.6 5.9 6.0 6.0 5.5 5.5 5.7 4.7 5.5 5.9 6.3 6.7 6.8 6.8 6.6 6.5 6.5 6.3 6.2 6.2 6.1 5.9 5.8 5.9 5.9 5.9 5.7 5.6 5.7 5.7 5.8 6.0 6.2 6.3 6.4 6.4 6.5 6.6
5.4 5.7 5.8 5.8 6.1 5.9 6.3 6.3 6.3 6.1 5.7 5.0 5.5 5.2 5.7 6.6 6.7 6.7 6.8 7.0 7.1 6.8 6.6 6.6 6.4 6.4 6.5 6.4 6.3 6.3 6.3 6.3 6.1 5.8 5.7 5.7 5.9 6.0 5.9 5.9 6.1 6.2 6.2 6.3
5.5 5.7 6.0 6.1 6.0 6.2 6.2 6.2 6.2 6.0 5.8 4.2 5.7 5.7 5.8 6.2 6.5 6.8 6.9 7.1 7.1 6.9 6.9 6.8 6.6 6.4 6.4 6.4 6.2 6.3 6.4 6.5 6.5 6.4 6.1 5.5 5.1 5.2 5.5 5.6 5.6 5.7 6.1 6.1
5.7 5.9 6.1 6.2 6.3 6.4 6.2 6.2 6.1 4.8 4.3 4.4 5.5 5.3 6.1 6.5 6.6 6.6 6.9 7.1 7.2 7.0 6.7 6.7 6.8 6.8 6.7 6.7 6.6 6.5 6.3 6.3 6.2 6.0 5.8 5.7 5.4 4.9 4.8 5.2 5.5 5.7 5.7 6.0
6.1 6.1 6.6 6.5 6.6 6.6 6.4 6.3 6.7 4.6 4.2 4.7 5.8 5.8 6.3 6.5 6.6 6.8 6.9 7.0 7.0 7.0 6.9 6.9 6.7 6.6 6.4 6.3 6.0 5.8 5.7 5.9 6.1 6.1 5.8 5.7 5.8 5.6 5.3 5.2 5.3 5.4 5.6 5.9
6.4 6.3 6.8 6.8 6.8 6.7 6.2 6.1 6.5 6.6 5.9 4.7 5.7 5.7 5.7 5.9 6.4 6.5 6.5 6.5 6.6 6.6 6.5 6.4 6.4 6.4 6.4 6.3 6.0 6.0 6.3 6.4 6.1 6.0 6.0 5.7 5.7 6.0 5.7 5.7 5.7 5.8 6.1 5.6
6.5 6.6 6.6 6.6 6.3 6.1 6.2 6.2 6.0 5.9 4.1 3.7 4.7 5.3 6.1 6.1 6.3 6.1 6.3 6.4 6.4 6.5 6.3 6.2 6.2 6.2 6.2 6.1 6.2 6.3 6.2 6.2 6.1 6.2 6.3 5.8 5.9 5.9 6.0 5.7 5.7 5.8 5.9 6.2
6.6 6.6 6.2 6.0 6.0 6.3 6.2 6.0 5.9 6.3 6.3 4.1 3.5 5.4 6.0 6.5 6.4 6.4 6.4 6.6 6.6 6.4 6.3 6.1 6.0 6.1 6.1 6.3 6.4 6.4 6.4 6.5 6.2 6.1 5.9 5.6 5.6 5.6 5.1 5.0 5.0 5.0 5.2 5.2
6.5 6.4 5.9 6.1 6.0 6.0 6.1 6.1 6.2 6.2 5.9 6.3 6.5 5.8 6.0 6.5 6.6 6.6 6.5 6.4 6.2 6.0 6.0 6.1 6.1 6.0 5.8 5.6 5.4 5.4 5.3 5.4 5.7 5.8 5.7 5.8 5.6 5.4 4.9 4.9 4.9 4.9 4.9 4.7
6.4 6.2 6.0 5.9 5.9 6.0 6.1 6.1 6.1 6.0 6.3 6.3 6.1 5.8 6.3 6.6 6.6 6.7 6.8 6.7 6.5 6.5 6.6 6.4 6.0 5.7 5.6 5.5 5.4 5.3 5.3 5.2 5.0 5.0 5.0 5.1 5.1 5.1 5.1 5.2 5.2 5.1 5.0 5.0
6.3 6.3 6.3 6.3 6.6 6.2 6.0 6.0 5.3 5.5 5.3 5.7 5.6 6.3 6.6 6.9 6.9 7.0 6.9 6.8 6.9 7.0 6.7 6.2 6.0 6.0 5.9 5.7 5.5 5.4 5.3 5.1 4.9 4.7 4.7 4.7 4.7 4.7 4.7 4.7 4.8 4.9 4.9 4.9
5.9 5.9 5.9 5.9 6.1 6.2 6.3 6.1 5.8 6.1 6.0 5.8 6.3 6.5 7.1 7.6 7.5 7.1 7.4 7.5 7.3 7.0 6.5 6.2 6.1 6.0 5.9 5.7 5.6 5.4 5.0 4.8 4.8 4.8 4.8 4.9 4.9 4.9 4.9 4.8 4.7 4.7 4.7 4.6
5.7 5.9 5.8 5.7 5.6 5.6 5.5 5.7 5.6 5.9 6.5 6.6 7.0 7.2 7.7 7.4 7.2 7.2 6.8 6.6 6.3 6.1 6.1 6.1 6.0 5.8 5.6 5.3 5.2 5.0 4.9 5.1 5.2 5.3 5.6 5.7 5.7 5.7 5.9 5.9 5.8 5.7 5.5 5.4
6.1 5.9 5.7 5.6 5.6 5.5 5.3 5.6 6.2 6.6 6.7 6.8 6.6 7.3 6.8 7.1 6.6 6.3 6.1 5.9 5.9 5.9 5.7 5.5 5.3 5.3 5.2 5.1 5.0 5.1 5.4 5.6 5.9 6.0 6.1 6.3 6.4 6.4 6.4 6.3 6.3 6.3 6.3 6.3
6.0 5.8 5.8 5.6 5.3 3.4 5.7 6.5 6.5 6.5 6.7 6.7 6.7 6.8 6.7 6.2 6.0 6.0 5.9 5.7 5.7 5.7 5.7 5.6 5.6 5.5 5.6 5.7 5.9 6.1 6.2 6.3 6.3 6.4 6.4 6.4 6.5 6.4 6.4 6.4 6.4 6.4 6.4 6.5
6.0 5.8 5.7 5.7 5.3 5.8 6.0 6.3 6.6 6.6 6.5 6.5 6.5 6.4 6.2 6.0 5.9 5.8 6.0 5.8 5.7 5.6 5.5 5.5 5.5 5.8 6.2 6.5 6.6 6.7 6.6 6.6 6.6 6.5 6.5 6.5 6.5 6.4 6.5 6.5 6.5 6.6 6.5 6.3
6.0 6.0 5.9 5.8 5.0 3.9 6.7 6.8 6.8 6.7 6.4 6.5 6.7 6.3 6.2 6.1 5.8 6.0 5.5 5.6 5.6 5.6 5.8 6.1 6.5 6.7 7.0 6.9 6.8 6.8 6.8 6.8 6.7 6.7 6.7 6.7 6.5 6.5 6.5 6.6 6.6 6.4 6.0 5.9
6.1 5.9 5.8 5.9 5.8 6.1 6.6 6.6 6.7 6.3 6.7 6.8 6.2 6.1 5.9 5.7 5.8 5.6 5.7 6.0 6.1 6.4 6.7 6.9 7.2 7.2 7.1 7.0 6.8 6.9 6.8 6.7 6.5 6.6 6.6 6.5 6.6 6.7 6.8 6.7 6.4 6.0 6.1 6.0
6.7 6.5 5.8 5.1 5.4 5.3 7.3 6.5 6.3 7.3 7.0 6.5 6.3 6.0 5.8 5.7 5.6 5.8 6.0 6.1 6.4 6.7 7.1 7.3 7.3 7.2 6.9 6.7 6.7 6.7 6.6 6.6 6.6 6.7 6.7 6.7 6.9 6.9 6.9 6.7 6.4 6.3 6.3 6.4
6.4 6.8 7.0 6.5 6.9 6.8 6.6 6.9 6.9 6.7 6.7 6.5 6.3 6.1 6.0 5.9 5.9 6.4 6.7 7.0 7.1 7.1 7.2 7.3 7.3 7.2 7.1 7.0 6.6 6.7 6.7 6.7 6.7 6.8 6.8 6.9 6.9 7.2 7.2 6.7 6.6 6.8 7.0 6.9
6.6 6.5 6.6 6.6 6.4 6.7 7.0 7.0 6.9 7.0 6.9 6.9 6.9 6.6 6.5 6.6 6.7 6.8 7.2 7.3 7.2 7.2 7.4 7.4 7.3 7.2 7.2 6.9 6.7 6.8 6.7 6.9 6.9 6.9 7.0 7.1 7.4 7.6 7.2 6.9 7.0 7.1 6.9 6.6
6.4 6.3 6.2 6.3 6.4 7.0 7.0 7.0 6.9 7.0 7.1 7.2 7.3 7.4 7.3 7.3 7.3 7.5 7.5 7.4 7.2 7.1 7.4 7.4 7.4 7.4 7.4 7.1 7.0 7.0 7.0 7.1 7.1 7.1 7.3 7.7 7.7 7.8 7.3 7.2 7.2 7.1 6.7 6.5
6.6 6.5 6.5 7.0 7.4 7.3 6.7 6.6 6.8 7.0 7.4 7.5 7.6 7.5 7.6 7.7 7.6 7.6 7.7 7.6 7.4 7.5 7.4 7.4 7.4 7.4 7.0 6.9 7.2 7.4 7.3 7.4 7.3 7.7 7.9 7.9 7.9 7.7 7.4 7.2 7.2 6.8 6.5 6.5
Wind_Speed
0 4 7 12 11 4 3 4 5 4 7 2 8 5 13 9 7 7 7 8 9 11 8 9 10 11 12 15 16 16 17 15 11 5 4 4 4 4 5 10 12 2 4 8
4 7 14 3 5 7 4 5 6 6 5 1 7 9 12 6 5 6 9 8 9 8 9 10 11 12 14 13 14 16 16 16 12 8 4 3 3 3 4 12 16 20 14 6
8 7 5 6 5 5 5 5 5 7 5 3 4 6 7 5 9 12 10 10 8 8 8 8 11 11 12 15 14 14 15 15 14 12 8 6 5 5 7 9 9 15 19 19
5 7 5 3 4 4 5 6 6 4 3 3 3 5 6 3 6 8 7 7 6 7 6 7 9 12 12 10 9 12 13 15 14 15 12 12 8 5 4 4 4 8 20 18
6 4 3 4 7 8 7 4 3 1 2 1 3 0 6 6 4 5 5 6 6 6 6 7 7 8 7 8 9 9 12 14 13 13 12 9 10 6 5 7 10 11 13 16
6 1 5 7 2 4 4 4 5 4 3 2 6 6 5 4 5 7 6 6 6 6 5 6 5 5 6 6 7 9 12 13 12 12 13 13 12 9 9 10 9 8 6 9
1 4 2 2 4 2 5 5 2 3 2 5 5 3 6 7 2 13 13 8 7 6 6 6 6 6 6 7 7 8 9 11 10 11 12 12 10 10 10 8 7 9 7 7
6 4 8 4 5 7 5 7 5 6 3 4 5 5 3 4 7 11 8 8 7 6 5 6 6 5 5 7 7 8 8 9 8 9 10 9 10 6 6 7 6 7 6 7
5 5 1 1 2 6 4 4 2 5 2 3 4 1 3 3 5 6 7 6 7 7 5 6 5 6 6 5 6 7 6 6 7 6 6 7 6 7 6 6 6 6 7 10
5 1 2 1 2 2 4 5 3 2 2 5 5 5 5 8 9 7 7 7 7 6 7 5 5 6 4 5 5 6 6 6 4 6 6 4 4 5 4 4 5 6 6 7
5 4 3 3 5 8 2 2 2 3 5 5 2 6 3 9 12 13 10 10 9 9 7 7 6 5 5 5 4 4 4 5 5 6 5 6 6 6 5 5 5 4 5 5
4 4 4 6 2 1 2 6 6 4 5 3 3 11 2 8 12 10 10 10 9 5 7 7 7 6 6 6 5 4 3 3 3 3 3 4 4 6 6 6 7 9 8 11
7 1 2 6 5 2 4 3 4 5 3 5 4 6 1 4 6 8 6 7 6 7 7 6 6 7 7 6 6 5 5 5 4 3 2 1 2 3 4 6 6 8 7 8
6 5 7 9 5 3 3 5 4 5 3 3 8 5 6 5 7 6 7 8 9 8 8 7 6 7 7 6 6 6 6 5 5 5 4 3 4 4 5 5 6 6 7 7
4 5 3 3 5 3 5 8 7 8 6 7 16 9 15 7 5 7 5 3 6 7 8 8 8 7 7 7 7 6 6 6 5 4 2 3 3 4 4 5 5 6 6 7
3 1 3 2 3 5 6 14 6 11 13 11 14 19 15 8 2 2 4 5 6 7 7 8 8 8 8 8 7 6 5 3 0 2 3 4 5 7 7 7 9 9 11 12
6 6 4 5 2 3 8 9 16 12 9 8 11 13 1 5 6 6 7 6 6 6 6 7 8 8 7 7 6 4 4 3 4 3 3 5 5 5 6 8 11 12 14 14
5 5 2 2 3 2 6 2 3 10 7 7 2 4 5 6 5 6 6 6 7 6 7 7 5 5 5 4 5 6 5 3 3 2 3 4 5 5 8 10 11 12 12 13
2 4 3 4 5 6 12 6 7 7 8 7 7 4 6 4 2 3 6 6 7 6 7 7 7 5 5 6 5 5 3 3 3 2 2 2 3 6 8 9 11 11 12 13
3 0 5 3 5 10 7 1 5 5 4 6 7 8 5 6 3 6 7 7 8 8 7 7 7 5 7 5 5 4 3 2 0 2 4 5 5 3 8 10 11 10 10 13
3 1 13 10 4 8 8 6 2 5 7 4 6 7 7 6 9 5 8 7 6 8 8 6 7 8 7 6 5 4 4 3 2 2 3 4 6 7 8 9 9 10 11 13
7 8 5 3 4 8 8 6 7 6 3 6 6 7 11 12 8 7 9 8 9 8 6 7 7 7 6 5 4 4 2 2 2 1 3 5 5 6 7 8 10 10 10 11
2 7 6 11 7 3 7 7 12 5 6 6 6 8 12 11 9 10 10 10 9 8 8 7 7 6 4 4 4 3 1 0 1 2 4 5 6 7 7 7 10 9 8 8
4 4 4 4 5 6 7 12 5 7 9 8 10 11 9 11 12 12 9 9 7 6 8 6 7 6 5 4 4 2 1 1 1 4 5 5 5 7 5 6 8 7 7 8
6 6 4 3 6 7 9 9 10 12 9 11 9 11 14 12 12 11 9 8 7 6 5 6 6 6 6 5 3 2 2 1 3 4 5 5 5 5 7 7 8 8 9 11
7 13 5 7 16 12 12 8 7 9 13 13 13 11 9 11 13 9 9 6 6 7 6 5 5 5 5 4 2 2 3 3 3 4 4 4 5 5 6 7 9 19 20 24
Wind_Direction
145 108 203 209 202 189 185 206 241 282 267 214 267 284 283 261 304 85 103 92 82 65 55 37 29 29 29 27 28 24 27 17 26 7 7 27 33 358 23 19 15 19 194 180
63 213 230 191 168 220 256 256 259 268 253 220 286 286 278 351 32 108 106 84 74 67 45 37 32 33 32 32 31 32 31 27 26 26 5 17 11 30 24 25 30 23 16 11
175 217 170 172 211 173 216 199 225 238 332 283 333 293 300 56 75 75 65 80 73 69 57 36 36 35 38 36 27 31 31 33 29 23 26 32 32 19 21 19 19 19 24 24
233 258 201 176 227 173 274 201 211 209 106 240 22 285 304 144 97 71 73 69 72 70 56 48 42 40 36 29 35 43 40 39 35 30 37 42 46 43 355 357 2 24 32 31
236 197 160 181 222 159 224 153 168 163 187 73 277 336 259 112 132 126 111 100 90 87 86 73 57 55 41 35 33 38 47 46 39 45 48 50 44 27 14 19 22 14 11 25
232 238 180 202 117 166 132 80 54 54 94 299 220 165 278 196 198 147 140 132 118 101 83 71 62 66 55 36 45 45 51 44 41 44 43 48 48 37 30 22 24 14 10 10
238 229 230 175 118 47 91 76 310 334 2 228 175 131 246 323 296 155 140 138 134 127 113 99 78 59 51 45 42 59 57 54 45 50 47 46 43 37 34 23 24 22 13 11
180 270 172 178 199 184 174 160 165 226 215 249 280 240 274 21 65 105 125 138 137 141 134 124 118 99 76 65 52 53 50 50 49 55 45 40 49 40 33 19 17 23 19 5
171 266 124 142 168 141 184 178 190 108 47 48 234 54 130 85 88 115 140 152 166 168 157 150 123 110 100 88 78 76 70 60 54 64 64 47 38 52 35 15 20 18 13 3
202 201 237 238 119 50 148 159 76 2 188 244 276 259 207 192 184 178 181 183 187 182 185 162 135 123 123 108 95 80 78 81 71 67 63 64 58 57 47 14 14 5 344 353
144 136 232 117 208 184 142 203 155 149 156 183 234 258 214 176 181 185 198 203 195 195 186 171 162 152 138 125 126 125 96 74 53 48 40 29 22 21 13 7 350 349 334 335
198 146 179 200 306 300 211 188 165 156 240 245 177 257 15 170 178 177 201 208 214 192 182 168 161 156 157 168 170 169 169 148 128 110 72 32 10 1 350 342 334 338 331 328
177 161 23 347 342 333 203 168 132 94 78 213 199 259 313 123 155 210 227 226 211 193 173 162 165 178 185 186 184 193 203 208 201 187 188 226 289 299 306 303 307 313 314 312
111 160 176 220 185 141 206 182 143 159 156 189 227 290 237 206 227 245 244 224 210 190 179 187 192 201 199 196 195 201 207 201 202 196 208 238 265 275 282 288 289 285 283 284
145 194 160 164 142 182 222 238 167 200 206 208 264 232 259 260 239 248 230 202 191 182 194 201 202 203 203 205 214 215 212 199 199 208 244 321 313 284 283 290 283 283 279 284
32 199 103 299 201 218 256 259 195 215 242 242 253 268 271 285 200 184 210 197 197 201 204 208 214 207 209 214 219 220 231 234 40 37 9 345 352 354 343 337 333 325 318 315
158 140 114 249 58 78 299 233 228 239 213 219 229 242 314 276 241 222 218 190 187 201 207 207 209 209 215 223 219 193 137 95 69 40 6 358 356 352 347 335 326 319 315 312
139 110 99 180 42 255 254 262 238 226 248 202 197 228 206 230 240 204 207 198 227 229 230 223 213 209 214 168 124 122 111 102 89 47 0 10 15 345 329 321 316 312 309 308
176 137 137 172 205 309 288 228 178 178 255 186 190 222 229 232 104 281 229 219 214 204 213 217 215 196 154 137 129 121 109 93 55 19 60 50 355 317 316 309 306 306 305 303
170 69 183 118 174 212 252 231 126 117 285 217 169 214 200 139 176 240 209 198 215 224 225 216 196 143 134 140 124 117 118 89 337 52 353 337 322 295 304 299 301 299 295 294
103 180 215 222 237 281 244 231 134 116 244 195 181 217 174 188 211 208 202 224 225 235 230 186 164 168 152 134 138 136 151 184 118 41 335 315 305 301 293 290 293 295 294 294
157 163 194 142 202 268 182 93 184 206 173 177 199 207 197 214 224 225 220 226 242 227 183 170 159 155 143 138 126 138 168 107 46 337 284 283 280 284 290 284 288 288 288 289
222 191 180 190 203 235 195 198 220 161 184 209 203 216 205 211 226 232 234 229 233 213 186 167 157 144 134 128 118 158 180 1 273 278 272 271 273 274 273 279 288 291 287 292
256 158 214 95 215 221 202 238 240 196 216 218 212 215 201 216 233 240 234 236 222 186 173 146 142 155 169 167 148 183 230 220 248 273 279 276 268 276 274 277 285 285 289 292
199 155 195 273 285 255 244 230 237 253 230 238 226 220 229 221 238 224 239 230 217 173 147 153 164 163 168 162 178 205 239 194 264 264 276 282 272 274 290 275 283 285 283 284
194 226 218 238 246 240 253 243 228 224 237 232 228 241 229 206 228 217 227 217 173 164 147 152 156 155 165 167 216 227 235 203 235 276 280 282 287 292 292 292 293 293 302 302